Weather History for Chicago Lansing, IL

Change the Weather History Date:

Sunday, December 8, 2013

  Actual Average (KMDW) Record (KMDW)
Temperature  
Mean Temperature 19 °F 31 °F  
Max Temperature 25 °F 37 °F 64 °F (1946)
Min Temperature 13 °F 25 °F 0 °F (1958)
Degree Days  
Heating Degree Days 46 34  
Month to date heating degree days 260  
Since 1 July heating degree days 1395  
Cooling Degree Days 0 0  
Month to date cooling degree days 0  
Year to date cooling degree days 1045  
Moisture  
Dew Point 16 °F    
Average Humidity 79    
Maximum Humidity 94    
Minimum Humidity 63    
Precipitation  
Precipitation 0.00 in 0.09 in 0.77 in (1980)
Month to date precipitation 0.76  
Year to date precipitation 37.28  
Sea Level Pressure  
Sea Level Pressure 30.24 in    
Wind  
Wind Speed 5 mph (East)    
Max Wind Speed 13 mph    
Max Gust Speed 16 mph    
Visibility 6 miles    
Events Snow    
T = Trace of Precipitation, MM = Missing Value Source: NWS Daily Summary

Daily Weather History Graph

Daily Weather History Graph

Search for Another Location

Airport:

Trip Planner

Search our weather history database for the weather conditions in past years. The results will help you decide how hot, cold, wet, or windy it might be!

Date:

Astronomy

Dec. 08, 2013 Rise Set
Actual Time 7:04 AM CST 4:20 PM CST
Civil Twilight 6:33 AM CST 4:51 PM CST
Nautical Twilight 5:58 AM CST 5:25 PM CST
Astronomical Twilight 5:24 AM CST 5:59 PM CST
Moon 11:20 AM CST (12/8) 11:12 PM CST (12/8)
Length of Visible Light 10h 18m
Length of Day
9h 15m
Waxing Crescent, 40% of the Moon is Illuminated
Dec 8
Waxing Crescent
Dec 9
First Quarter
Dec 17
Full
Dec 25
Last Quarter
Jan 1
New

Hourly Weather History & Observations

Time (CST) Temp. Windchill Dew Point Humidity Pressure Visibility Wind Dir Wind Speed Gust Speed Precip Events Conditions
12:15 AM 13.5 °F 4.4 °F 8.4 °F 80% 30.59 in 10.0 mi West 5.8 mph - N/A   Mostly Cloudy
12:35 AM 14.9 °F 7.5 °F 9.1 °F 78% 30.58 in 10.0 mi West 4.6 mph - N/A   Overcast
12:55 AM 15.3 °F - 9.5 °F 78% 30.57 in 10.0 mi Calm Calm - N/A   Overcast
1:15 AM 15.8 °F 7.2 °F 9.5 °F 76% 30.56 in 10.0 mi NW 5.8 mph - N/A   Overcast
1:35 AM 16.2 °F 10.6 °F 9.7 °F 76% 30.54 in 10.0 mi North 3.5 mph - N/A   Mostly Cloudy
1:55 AM 17.1 °F 11.7 °F 9.9 °F 73% 30.53 in 10.0 mi North 3.5 mph - N/A   Scattered Clouds
2:15 AM 17.2 °F 11.9 °F 10.2 °F 74% 30.52 in 10.0 mi NNE 3.5 mph - N/A   Scattered Clouds
2:35 AM 17.4 °F 10.4 °F 10.6 °F 75% 30.50 in 10.0 mi North 4.6 mph - N/A   Scattered Clouds
2:55 AM 17.8 °F 8.5 °F 10.9 °F 75% 30.48 in 10.0 mi North 6.9 mph - N/A   Clear
3:15 AM 18.1 °F - 10.2 °F 71% 30.50 in 10.0 mi Calm Calm - N/A   Clear
3:35 AM 18.3 °F - 9.9 °F 70% 30.49 in 10.0 mi Calm Calm - N/A   Mostly Cloudy
3:55 AM 18.3 °F 13.1 °F 9.9 °F 70% 30.48 in 10.0 mi NE 3.5 mph - N/A   Scattered Clouds
4:15 AM 18.5 °F - 10.0 °F 70% 30.47 in 10.0 mi Calm Calm - N/A   Clear
4:35 AM 18.5 °F - 10.2 °F 70% 30.46 in 10.0 mi Calm Calm - N/A   Clear
4:55 AM 18.7 °F - 11.5 °F 74% 30.47 in 10.0 mi Calm Calm - N/A   Scattered Clouds
5:15 AM 19.0 °F 11.1 °F 10.8 °F 70% 30.47 in 10.0 mi East 5.8 mph - N/A   Clear
5:35 AM 19.0 °F - 10.6 °F 70% 30.47 in 10.0 mi Calm Calm - N/A   Scattered Clouds
5:55 AM 18.7 °F 8.6 °F 11.3 °F 73% 30.44 in 10.0 mi ESE 8.1 mph - N/A   Mostly Cloudy
6:15 AM 18.9 °F 8.8 °F 11.3 °F 72% 30.43 in 10.0 mi East 8.1 mph - N/A   Mostly Cloudy
6:35 AM 19.2 °F 7.0 °F 10.4 °F 69% 30.41 in 10.0 mi East 11.5 mph 16.1 mph N/A   Mostly Cloudy
6:55 AM 19.4 °F 7.2 °F 10.2 °F 68% 30.41 in 10.0 mi East 11.5 mph - N/A   Overcast
7:15 AM 19.8 °F 9.9 °F 10.4 °F 67% 30.40 in 10.0 mi East 8.1 mph - N/A   Overcast
7:35 AM 19.9 °F 8.6 °F 10.2 °F 66% 30.39 in 10.0 mi East 10.4 mph - N/A   Mostly Cloudy
7:55 AM 20.3 °F 9.0 °F 10.4 °F 66% 30.39 in 10.0 mi ESE 10.4 mph - N/A   Overcast
8:15 AM 20.7 °F 11.0 °F 10.4 °F 65% 30.39 in 10.0 mi ESE 8.1 mph - N/A   Overcast
8:35 AM 20.8 °F 9.7 °F 10.4 °F 64% 30.38 in 10.0 mi East 10.4 mph - N/A   Overcast
8:55 AM 21.2 °F 10.9 °F 11.1 °F 65% 30.38 in 10.0 mi ESE 9.2 mph - N/A   Overcast
9:15 AM 21.7 °F 11.5 °F 11.1 °F 64% 30.37 in 10.0 mi East 9.2 mph - N/A   Overcast
9:35 AM 22.3 °F 13.0 °F 11.5 °F 63% 30.36 in 10.0 mi East 8.1 mph - N/A   Overcast
9:55 AM 22.1 °F 11.3 °F 11.8 °F 65% 30.36 in 10.0 mi ENE 10.4 mph - N/A Snow Light Snow
10:15 AM 22.5 °F 13.2 °F 12.6 °F 66% 30.35 in 7.0 mi ENE 8.1 mph - N/A Snow Light Snow
10:35 AM 22.5 °F 12.4 °F 13.8 °F 69% 30.32 in 4.0 mi East 9.2 mph - N/A Snow Light Snow
10:55 AM 22.1 °F 10.6 °F 14.9 °F 74% 30.30 in 2.5 mi East 11.5 mph - N/A Snow Light Snow
11:15 AM 22.1 °F 12.0 °F 15.6 °F 76% 30.29 in 3.0 mi East 9.2 mph - N/A Snow Light Snow
11:35 AM 22.6 °F 11.9 °F 16.2 °F 76% 30.28 in 5.0 mi East 10.4 mph - N/A Snow Light Snow
11:55 AM 23.0 °F 13.9 °F 16.2 °F 75% 30.26 in 5.0 mi ENE 8.1 mph - N/A Snow Light Snow
12:15 PM 22.6 °F 11.9 °F 16.2 °F 76% 30.24 in 4.0 mi East 10.4 mph - N/A Snow Light Snow
12:35 PM 23.0 °F 13.1 °F 16.7 °F 77% 30.22 in 4.0 mi East 9.2 mph - N/A Snow Light Snow
12:55 PM 23.4 °F 12.2 °F 17.1 °F 77% 30.22 in 7.0 mi East 11.5 mph - N/A Snow Light Snow
1:15 PM 23.5 °F 13.0 °F 16.9 °F 76% 30.19 in 10.0 mi East 10.4 mph - N/A   Overcast
1:35 PM 23.7 °F 13.3 °F 16.9 °F 75% 30.18 in 10.0 mi East 10.4 mph - N/A   Overcast
1:55 PM 23.9 °F 13.5 °F 16.7 °F 74% 30.15 in 10.0 mi East 10.4 mph - N/A Snow Light Snow
2:15 PM 23.9 °F 13.5 °F 16.7 °F 74% 30.14 in 10.0 mi East 10.4 mph - N/A Snow Light Snow
2:35 PM 24.4 °F 17.5 °F 16.9 °F 73% 30.13 in 5.0 mi East 5.8 mph - N/A Snow Light Snow
2:55 PM 24.6 °F 13.2 °F 17.1 °F 73% 30.11 in 5.0 mi East 12.7 mph - N/A Snow Light Snow
3:15 PM 24.6 °F 14.4 °F 17.6 °F 75% 30.10 in 2.5 mi East 10.4 mph - N/A Snow Light Snow
3:35 PM 24.6 °F 16.7 °F 18.5 °F 78% 30.09 in 4.0 mi East 6.9 mph - N/A Snow Light Snow
3:55 PM 24.3 °F 13.9 °F 19.0 °F 80% 30.08 in 2.5 mi East 10.4 mph - N/A Snow Light Snow
4:15 PM 23.9 °F 15.8 °F 19.9 °F 85% 30.07 in 1.8 mi East 6.9 mph - N/A Snow Light Snow
4:35 PM 23.9 °F 15.8 °F 20.1 °F 85% 30.05 in 2.0 mi East 6.9 mph - N/A Snow Light Snow
4:55 PM 23.7 °F 17.8 °F 20.7 °F 88% 30.05 in 2.0 mi East 4.6 mph - N/A Snow Light Snow
5:15 PM 23.7 °F 15.6 °F 20.8 °F 89% 30.05 in 1.2 mi East 6.9 mph - N/A Snow Light Snow
5:35 PM 23.5 °F 17.6 °F 21.2 °F 91% 30.04 in 1.0 mi ESE 4.6 mph - N/A Snow Snow
5:55 PM 23.7 °F 17.8 °F 21.7 °F 92% 30.04 in 1.0 mi East 4.6 mph - N/A Snow Snow
6:15 PM 23.7 °F 17.8 °F 21.7 °F 92% 30.02 in 1.0 mi East 4.6 mph - N/A Snow Snow
6:35 PM 23.7 °F 17.8 °F 21.7 °F 92% 30.01 in 1.2 mi East 4.6 mph - N/A Snow Light Snow
6:55 PM 23.9 °F - 21.7 °F 91% 30.01 in 1.5 mi Calm Calm - N/A Snow Light Snow
7:15 PM 23.9 °F - 21.9 °F 92% 30.01 in 1.5 mi Calm Calm - N/A Snow Light Snow
7:35 PM 23.9 °F - 22.1 °F 93% 30.01 in 1.5 mi Calm Calm - N/A Snow Light Snow
7:55 PM 23.9 °F - 22.1 °F 93% 30.01 in 1.0 mi Calm Calm - N/A Snow Light Snow
8:15 PM 23.9 °F - 22.5 °F 94% 30.00 in 1.0 mi Calm Calm - N/A Snow Light Snow
8:35 PM 24.1 °F - 22.5 °F 94% 29.99 in 1.2 mi Calm Calm - N/A Snow Light Snow
8:55 PM 23.9 °F - 22.5 °F 94% 29.99 in 1.2 mi Calm Calm - N/A Snow Light Snow
9:15 PM 23.9 °F - 22.5 °F 94% 29.99 in 1.0 mi Calm Calm - N/A Snow Snow
9:35 PM 23.9 °F - 22.5 °F 94% 29.98 in 1.5 mi Calm Calm - N/A Snow Light Snow
9:55 PM 23.9 °F - 22.3 °F 94% 29.97 in 2.0 mi Calm Calm - N/A Snow Light Snow
10:15 PM 23.9 °F - 22.1 °F 93% 29.96 in 4.0 mi Calm Calm - N/A Snow Light Snow
10:35 PM 24.3 °F 18.4 °F 22.6 °F 94% 29.96 in 3.0 mi South 4.6 mph - N/A Snow Light Snow
10:55 PM 24.6 °F 18.8 °F 22.8 °F 93% 29.95 in 5.0 mi South 4.6 mph - N/A   Overcast
11:15 PM 24.8 °F 20.5 °F 22.8 °F 92% 29.95 in 4.0 mi SSW 3.5 mph - N/A Snow Light Snow
11:35 PM 25.2 °F 17.3 °F 23.0 °F 91% 29.94 in 7.0 mi SSW 6.9 mph - N/A   Overcast
11:55 PM 25.7 °F 15.7 °F 23.5 °F 92% 29.94 in 7.0 mi SW 10.4 mph - N/A   Overcast